Weather reports worldwide

Advertisment
Arkona, Germany (10091): temperature & dewpoint: 18.06.2018 15:00:00 - 24.06.2018 15:00:00 (CEST)Arkona, Germany (10091): temperature 5cm & temperature -5cm: 18.06.2018 15:00:00 - 24.06.2018 15:00:00 (CEST)Arkona, Germany (10091): temperature -20cm & temperature -100cm: 18.06.2018 15:00:00 - 24.06.2018 15:00:00 (CEST)Arkona, Germany (10091): water temperature: 18.06.2018 15:00:00 - 24.06.2018 15:00:00 (CEST)Arkona, Germany (10091): wind speed & gusts: 18.06.2018 15:00:00 - 24.06.2018 15:00:00 (CEST)Arkona, Germany (10091): wind direction: 18.06.2018 15:00:00 - 24.06.2018 15:00:00 (CEST)Arkona, Germany (10091): reduced air pressure: 18.06.2018 15:00:00 - 24.06.2018 15:00:00 (CEST)Arkona, Germany (10091): visibility: 18.06.2018 15:00:00 - 24.06.2018 15:00:00 (CEST)Arkona, Germany (10091): sunshine duration: 18.06.2018 15:00:00 - 24.06.2018 15:00:00 (CEST)Arkona, Germany (10091): precipitation: 18.06.2018 15:00:00 - 24.06.2018 15:00:00 (CEST)
Date & Time tt [°C] td [°C] tt 5cm [°C] tt -5cm [°C] tt -20cm [°C] tt -100cm [°C] tw [°C] ff [km/h] ff [kn] fx [km/h] fx [kn] dd ppp [hPa] vv [km] sd [min] rr [mm]
24.06.2018 15:00:00 17,1 10,0 22,9 30,6 20,5 16,4 17,2 17 9 28 15 WNW 1017,1 30 58 0,0
24.06.2018 14:00:00 16,8 9,6 23,1 30,5 19,5 16,4 17,2 14 8 23 13 WNW 1016,9 30 60 0,0
24.06.2018 13:00:00 16,4 10,0 21,6 28,5 18,6 16,4 17,1 16 9 27 14 NW 1017,2 23 60 0,0
24.06.2018 12:00:00 16,1 10,3 20,8 26,4 17,8 16,4 17,0 14 8 23 12 NW 1016,8 24 60 0,0
24.06.2018 11:00:00 15,8 9,8 19,8 23,3 17,1 16,4 16,8 13 7 22 12 NW 1016,6 33 31 0,0
24.06.2018 10:00:00 15,9 9,9 20,0 22,1 16,5 16,4 16,7 14 8 25 13 NW 1016,4 25 57 0,0
24.06.2018 09:00:00 15,6 9,9 18,7 19,2 16,2 16,4 16,7 13 7 26 14 NW 1016,3 32 60 0,0
24.06.2018 08:00:00 15,1 9,7 17,1 16,1 16,1 16,4 16,7 16 9 26 14 NW 1015,9 42 55 0,0
24.06.2018 07:00:00 14,4 9,3 14,7 13,9 16,2 16,4 16,8 15 8 27 15 NW 1015,8 53 57 0,0
24.06.2018 06:00:00 13,6 9,5 12,5 13,4 16,5 16,5 16,8 21 11 36 19 NW 1015,7 41 32 0,0
24.06.2018 05:00:00 13,5 9,6 12,3 13,4 16,8 16,5 16,7 23 12 37 20 NW 1015,8 54 0 0,0
24.06.2018 04:00:00 13,6 9,9 12,3 13,8 17,0 16,5 16,7 24 13 38 20 WNW 1015,9 52 0 0,0
24.06.2018 03:00:00 14,1 10,1 13,2 14,4 17,3 16,5 16,0 24 13 39 21 WNW 1016,2 39 0 0,0
24.06.2018 02:00:00 14,5 10,3 13,3 14,6 17,6 16,5 15,8 24 13 37 20 WNW 1016,2 41 0 0,0
24.06.2018 01:00:00 14,8 10,7 13,7 15,0 18,0 16,5 15,4 25 14 44 24 WNW 1016,3 43 0 0,0
24.06.2018 00:00:00 15,1 9,7 13,9 15,6 18,4 16,6 15,3 24 13 40 21 WNW 1016,4 55 0 0,0
23.06.2018 23:00:00 15,5 10,1 14,6 16,3 18,7 16,6 15,3 22 12 37 20 WNW 1016,2 70 0 0,0
23.06.2018 22:00:00 15,5 9,9 14,4 17,2 19,1 16,6 15,4 23 12 45 24 WNW 1016,1 57 0 0,0
23.06.2018 21:00:00 15,6 9,7 14,8 18,5 19,4 16,6 15,4 27 15 48 26 W 1015,8 47 49 0,0
23.06.2018 20:00:00 15,8 10,0 15,9 20,5 19,5 16,6 15,2 31 17 46 25 W 1015,8 44 49 0,0
23.06.2018 19:00:00 16,6 10,5 18,0 22,4 19,3 16,7 15,0 30 16 48 26 W 1015,9 20 60 0,0
23.06.2018 18:00:00 16,8 9,6 19,4 23,7 19,0 16,7 14,8 33 18 46 25 W 1016,0 26 60 0,0
23.06.2018 17:00:00 16,7 9,3 19,6 23,7 18,6 16,7 14,8 36 19 51 28 W 1016,1 26 52 0,0
23.06.2018 16:00:00 16,3 9,7 18,7 24,3 18,1 16,7 14,8 39 21 52 28 W 1016,2 32 39 0,0
23.06.2018 15:00:00 17,1 10,5 21,6 24,7 17,4 16,7 14,8 37 20 49 26 W 1016,2 16 56 0,0
23.06.2018 14:00:00 15,8 10,1 18,5 22,7 16,8 16,7 14,7 27 15 39 21 W 1016,4 33 55 0,0
23.06.2018 13:00:00 15,7 9,7 19,0 20,2 16,3 16,8 14,6 28 15 42 23 W 1016,1 25 47 0,0
23.06.2018 12:00:00 14,9 9,3 17,8 19,7 15,8 16,8 14,6 24 13 42 23 WNW 1016,0 29 42 0,0
23.06.2018 11:00:00 14,7 9,3 17,3 18,1 15,5 16,8 14,6 26 14 42 23 W 1015,8 31 45 0,0
23.06.2018 10:00:00 13,9 8,4 16,3 16,2 15,2 16,8 14,6 30 16 45 25 W 1015,4 29 24 0,0
23.06.2018 09:00:00 12,9 8,2 13,9 15,0 15,1 16,8 14,7 29 16 43 23 W 1015,2 29 39 0,0
23.06.2018 08:00:00 12,5 8,0 13,7 13,4 15,1 16,8 14,8 26 14 39 21 W 1014,9 33 6 0,0
23.06.2018 07:00:00 12,1 7,7 12,3 12,5 15,2 16,9 14,8 23 13 43 23 WNW 1014,9 26 0 0,0
23.06.2018 06:00:00 11,9 6,9 11,8 12,2 15,4 16,9 14,7 26 14 51 28 WNW 1014,6 26 0 0,0
23.06.2018 05:00:00 12,0 7,0 11,8 12,3 15,6 16,9 14,7 33 18 49 26 W 1014,2 27 0 0,0
23.06.2018 04:00:00 12,2 7,7 11,9 12,5 15,8 16,9 14,7 26 14 51 28 WNW 1014,4 23 0 0,0
23.06.2018 03:00:00 12,6 7,5 12,3 12,7 16,0 16,9 14,7 34 18 50 27 WNW 1014,1 26 0 0,0
23.06.2018 02:00:00 13,1 7,9 12,7 12,9 16,2 17,0 14,8 31 17 50 27 WNW 1014,2 30 0 0,0
23.06.2018 01:00:00 13,3 8,0 12,9 13,1 16,5 17,0 14,8 29 16 52 28 WNW 1014,2 38 0 0,0
23.06.2018 00:00:00 13,8 8,7 13,4 13,5 16,7 17,0 14,8 31 17 58 31 W 1014,1 39 0 0,0
22.06.2018 23:00:00 14,5 9,5 14,1 13,8 17,0 17,0 14,9 41 22 54 29 W 1013,9 37 0 0,0
22.06.2018 22:00:00 14,6 8,3 14,2 14,1 17,4 17,0 15,4 35 19 49 26 W 1013,9 31 0 0,0
22.06.2018 21:00:00 14,1 7,9 13,7 14,6 17,7 17,1 15,6 31 17 52 28 W 1014,1 38 0 0,0
22.06.2018 20:00:00 14,4 7,5 14,1 15,5 18,0 17,1 15,7 37 20 57 31 W 1014,3 40 8 0,0
22.06.2018 19:00:00 15,2 7,7 15,2 17,3 18,1 17,1 15,8 41 22 62 33 W 1014,4 33 54 0,0
22.06.2018 18:00:00 16,5 8,3 18,1 19,7 18,0 17,1 15,8 48 26 64 35 W 1014,1 14 60 0,0
22.06.2018 17:00:00 17,1 9,8 19,2 19,9 17,8 17,1 15,8 44 24 57 31 W 1014,1 11 60 0,0
22.06.2018 16:00:00 17,0 6,5 19,5 20,6 17,4 17,1 15,8 41 22 51 28 W 1014,0 14 60 0,0
22.06.2018 15:00:00 16,9 7,7 19,7 20,9 17,0 17,2 15,7 40 22 51 28 W 1014,0 14 60 0,0
22.06.2018 14:00:00 16,0 9,0 18,8 20,5 16,4 17,2 15,6 41 22 50 27 W 1013,7 12 60 0,0
22.06.2018 13:00:00 15,8 9,8 18,6 19,9 15,9 17,2 15,6 36 19 45 25 W 1013,4 19 60 0,0
22.06.2018 12:00:00 15,1 9,6 18,1 18,1 15,4 17,2 15,5 35 19 48 26 W 1013,2 18 58 0,0
22.06.2018 11:00:00 13,8 8,9 15,4 16,0 15,1 17,2 15,4 33 18 45 24 W 1012,6 42 44 0,0
22.06.2018 10:00:00 13,6 8,8 15,0 14,2 14,9 17,2 15,4 30 16 46 25 W 1012,2 35 4 0,0
22.06.2018 09:00:00 12,8 8,1 13,7 13,5 14,8 17,2 15,5 29 16 48 26 W 1011,4 34 12 0,0
22.06.2018 08:00:00 12,8 7,7 13,5 12,6 14,8 17,2 15,6 29 16 51 27 WNW 1010,6 47 17 0,0
22.06.2018 07:00:00 11,8 7,8 11,4 11,3 14,9 17,2 15,8 38 21 55 30 W 1010,0 53 3 0,0
22.06.2018 06:00:00 11,3 7,4 10,5 11,1 15,1 17,2 15,9 37 20 56 31 W 1009,9 57 3 0,0
22.06.2018 05:00:00 11,9 7,7 11,1 11,1 15,2 17,2 16,0 42 23 59 32 W 1009,8 47 0 0,5
22.06.2018 04:00:00 10,3 7,6 8,9 10,3 15,3 17,2 16,1 34 18 68 37 W 1009,7 35 0 3,8
22.06.2018 03:00:00 12,0 6,9 11,4 11,4 15,8 17,2 16,2 48 26 71 39 W 1009,5 47 0 0,0
22.06.2018 02:00:00 12,2 6,7 11,7 11,4 16,1 17,2 16,4 54 29 73 40 W 1009,5 46 0 0,0
22.06.2018 01:00:00 12,1 6,8 11,2 11,5 16,4 17,2 16,6 51 28 70 38 W 1009,8 50 0 0,0
22.06.2018 00:00:00 12,1 7,2 11,3 11,7 16,8 17,2 16,7 50 27 74 40 W 1009,8 48 0 0,0
21.06.2018 23:00:00 12,7 6,4 11,6 12,0 17,1 17,2 16,8 50 27 71 38 W 1009,6 55 0 0,0
21.06.2018 22:00:00 13,0 7,2 10,2 11,6 17,6 17,2 17,0 45 24 77 42 W 1009,7 61 0 1,7
21.06.2018 21:00:00 13,2 8,2 12,5 13,5 17,9 17,2 17,1 48 26 68 37 W 1009,4 56 21 0,0
21.06.2018 20:00:00 13,0 8,0 12,0 14,5 18,2 17,2 17,1 48 26 66 36 W 1009,3 26 24 0,0
21.06.2018 19:00:00 11,6 7,9 10,5 14,4 18,6 17,2 17,2 41 22 66 36 W 1008,9 42 0 0,8
21.06.2018 18:00:00 11,2 7,5 9,9 14,9 18,9 17,2 17,2 34 19 56 31 WNW 1008,4 9 0 2,1
21.06.2018 17:00:00 10,8 9,7 10,8 15,1 19,2 17,2 17,2 23 12 50 27 W 1008,1 1,3 0 3,1
21.06.2018 16:00:00 12,7 9,5 12,1 17,5 19,2 17,2 17,2 29 16 42 23 W 1007,4 8 16 0,2
21.06.2018 15:00:00 14,4 7,4 16,0 17,0 19,4 17,2 17,3 27 14 40 22 W 1007,2 60 0 0,0
21.06.2018 14:00:00 13,6 8,6 13,3 16,3 19,6 17,2 17,3 27 14 42 23 W 1007,2 62 0 0,0
21.06.2018 13:00:00 13,0 8,5 11,8 16,3 20,0 17,2 17,3 24 13 43 23 W 1008,1 65 0 0,3
21.06.2018 12:00:00 12,3 9,2 11,6 16,5 20,3 17,2 17,4 31 17 44 24 W 1008,3 17 0 1,6
21.06.2018 11:00:00 12,3 10,2 11,8 16,8 20,7 17,2 17,5 31 17 47 25 W 1008,4 10 0 3,0
21.06.2018 10:00:00 13,2 11,4 12,9 18,0 21,0 17,2 17,5 22 12 35 19 WNW 1007,9 13 0 1,9
21.06.2018 09:00:00 13,6 12,5 13,6 18,7 21,2 17,2 17,5 28 15 44 24 WNW 1008,3 1,5 0 1,8
21.06.2018 08:00:00 15,6 14,3 15,4 19,6 21,4 17,2 17,5 25 13 38 20 WSW 1008,5 8 0 0,1
21.06.2018 07:00:00 17,1 14,9 17,2 19,9 21,6 17,2 17,5 25 14 37 20 WSW 1009,2 13 0 0,0
21.06.2018 06:00:00 17,5 15,3 17,5 19,8 21,9 17,2 17,5 29 16 41 22 WSW 1009,5 7 0 0,0
21.06.2018 05:00:00 17,4 15,4 17,2 19,7 22,2 17,2 17,5 22 12 34 18 WSW 1010,4 11 0 0,0
21.06.2018 04:00:00 17,2 15,7 16,4 20,1 22,5 17,2 17,5 20 11 29 16 WSW 1011,1 8 0 0,0
21.06.2018 03:00:00 16,9 15,3 16,0 20,5 22,9 17,2 17,4 19 10 27 15 WSW 1012,0 12 0 0,0
21.06.2018 02:00:00 16,8 14,9 16,0 20,8 23,3 17,2 17,5 21 11 29 16 WSW 1012,4 18 0 0,0
21.06.2018 01:00:00 17,3 15,4 16,4 21,6 23,7 17,2 17,5 22 12 28 15 WSW 1013,1 8 0 0,0
21.06.2018 00:00:00 17,9 15,9 17,0 22,5 24,1 17,2 17,6 18 10 33 18 WSW 1013,5 7 0 0,0
20.06.2018 23:00:00 19,5 15,2 18,7 23,6 24,6 17,2 17,6 22 12 34 18 WSW 1013,8 15 0 0,0
20.06.2018 22:00:00 19,3 15,5 17,8 24,8 24,9 17,2 17,7 19 10 22 12 SW 1013,9 17 0 0,0
20.06.2018 21:00:00 21,3 15,2 20,7 26,7 25,2 17,2 17,8 18 10 26 14 SW 1014,1 26 55 0,0
20.06.2018 20:00:00 22,9 14,9 23,8 29,2 25,2 17,2 17,9 21 11 34 18 WSW 1014,5 30 60 0,0
20.06.2018 19:00:00 23,6 14,1 25,5 31,1 25,0 17,2 18,1 24 13 40 22 WSW 1015,3 20 60 0,0
20.06.2018 18:00:00 24,1 14,2 27,1 32,5 24,6 17,2 18,1 31 17 43 23 WSW 1016,1 20 60 0,0
20.06.2018 17:00:00 24,9 14,5 28,5 32,5 24,1 17,2 18,2 30 16 47 26 WSW 1016,6 14 60 0,0
20.06.2018 16:00:00 23,4 13,2 27,3 33,4 23,3 17,2 18,2 34 18 45 25 WSW 1017,2 19 60 0,0
20.06.2018 15:00:00 24,9 13,5 29,6 33,2 22,4 17,2 17,8 30 16 49 27 WSW 1017,6 12 60 0,0
20.06.2018 14:00:00 24,5 13,4 28,9 31,6 21,6 17,2 17,7 30 16 51 27 WSW 1018,3 15 60 0,0
20.06.2018 13:00:00 22,1 13,0 24,6 29,3 20,8 17,2 17,6 32 17 49 27 SW 1019,2 29 58 0,0
20.06.2018 12:00:00 22,3 13,8 26,7 26,4 20,2 17,2 17,5 29 16 44 24 SW 1020,0 22 48 0,0
20.06.2018 11:00:00 19,3 11,8 22,4 24,8 19,7 17,2 17,5 24 13 36 19 SW 1020,4 32 19 0,0
20.06.2018 10:00:00 18,2 9,7 21,4 23,2 19,4 17,2 17,5 21 11 29 15 SW 1021,1 41 47 0,0
20.06.2018 09:00:00 16,6 11,1 18,7 20,4 19,2 17,2 17,4 16 9 29 15 SW 1021,3 31 17 0,0
20.06.2018 08:00:00 15,3 10,3 16,4 18,2 19,2 17,2 17,4 22 12 33 18 W 1021,5 28 15 0,0
20.06.2018 07:00:00 14,5 9,3 15,0 16,6 19,4 17,2 17,4 24 13 33 18 W 1021,6 33 23 0,0
20.06.2018 06:00:00 14,1 9,3 13,4 15,9 19,7 17,2 17,4 26 14 37 20 W 1021,4 35 36 0,0
20.06.2018 05:00:00 14,1 9,1 13,2 16,1 20,0 17,2 17,4 28 15 41 22 W 1021,5 34 0 0,0
20.06.2018 04:00:00 14,5 9,9 13,9 16,4 20,3 17,2 17,5 29 16 44 24 W 1021,3 31 0 0,0
20.06.2018 03:00:00 14,5 9,3 13,6 16,7 20,7 17,2 17,4 34 18 45 24 W 1021,2 34 0 0,0
20.06.2018 02:00:00 15,0 8,9 13,9 17,1 21,1 17,2 17,5 33 18 44 24 W 1021,1 37 0 0,0
20.06.2018 01:00:00 15,2 9,3 14,1 17,7 21,5 17,2 17,6 31 17 48 26 W 1021,2 34 0 0,0
20.06.2018 00:00:00 15,7 9,3 14,7 18,4 22,0 17,2 17,6 31 17 44 24 W 1021,1 36 0 0,0
19.06.2018 23:00:00 16,2 10,1 15,1 19,3 22,5 17,2 17,6 29 16 42 23 W 1020,8 36 0 0,0
19.06.2018 22:00:00 16,6 11,0 15,6 20,4 22,9 17,2 17,7 28 15 46 25 W 1020,4 35 31 0,0
19.06.2018 21:00:00 17,5 11,0 16,8 22,0 23,3 17,2 17,8 35 19 53 28 W 1019,8 41 60 0,0
19.06.2018 20:00:00 18,3 10,5 18,4 24,6 23,4 17,2 17,8 36 19 51 28 W 1019,5 52 60 0,0
19.06.2018 19:00:00 19,1 11,5 20,5 26,5 23,3 17,2 17,8 39 21 53 29 W 1019,4 15 60 0,0
19.06.2018 18:00:00 19,9 13,2 22,4 28,0 23,0 17,2 17,8 38 21 58 32 WSW 1019,2 12 60 0,0
19.06.2018 17:00:00 19,7 13,5 22,7 27,9 22,6 17,2 17,8 44 24 59 32 WSW 1019,1 10 60 0,0
19.06.2018 16:00:00 19,8 13,0 23,2 28,5 22,1 17,2 17,7 43 23 62 33 WSW 1018,8 9 57 0,0
19.06.2018 15:00:00 19,6 14,1 21,7 27,9 21,6 17,2 17,7 46 25 58 31 W 1018,6 13 58 0,0
19.06.2018 14:00:00 19,7 14,5 23,2 26,0 21,1 17,2 17,6 46 25 63 34 WSW 1018,3 10 33 0,0
19.06.2018 13:00:00 19,3 14,3 22,6 25,2 20,7 17,2 17,6 42 23 59 32 WSW 1018,0 11 24 0,0
19.06.2018 12:00:00 18,5 14,2 21,3 23,5 20,4 17,2 17,6 42 23 56 30 WSW 1017,8 14 21 0,0
19.06.2018 11:00:00 18,3 14,3 21,0 20,8 20,3 17,2 17,6 36 19 52 28 WSW 1017,7 13 10 0,0
19.06.2018 10:00:00 16,8 13,8 17,1 19,9 20,3 17,2 17,6 32 17 49 27 WSW 1017,4 12 2 0,0
19.06.2018 09:00:00 17,2 14,2 18,0 19,2 20,4 17,2 17,7 31 17 47 25 WSW 1016,8 16 8 0,0
19.06.2018 08:00:00 16,5 13,7 16,9 18,3 20,5 17,2 17,7 29 16 42 23 WSW 1016,7 19 17 0,0
19.06.2018 07:00:00 16,0 13,0 15,0 17,4 20,8 17,2 17,7 33 18 45 24 W 1016,8 15 48 0,0
19.06.2018 06:00:00 15,7 13,3 14,5 17,8 21,2 17,2 17,8 32 17 44 24 W 1016,3 16 0 0,0
19.06.2018 05:00:00 15,9 14,4 15,1 18,2 21,5 17,2 17,9 28 15 39 21 WSW 1016,1 14 0 0,0
19.06.2018 04:00:00 15,7 14,7 15,2 18,4 21,9 17,2 17,8 26 14 34 19 WSW 1016,2 11 0 0,0
19.06.2018 03:00:00 15,4 14,8 15,3 19,1 22,3 17,2 17,8 19 11 39 21 WSW 1016,4 13 0 0,5
19.06.2018 02:00:00 15,3 14,6 15,2 19,7 22,7 17,2 17,9 27 15 41 22 WSW 1016,9 1,6 0 0,5
19.06.2018 01:00:00 16,1 15,3 16,0 20,5 23,1 17,2 18,0 17 9 24 13 WSW 1016,8 5 0 0,0
19.06.2018 00:00:00 15,7 14,8 15,7 21,3 23,4 17,2 18,1 19 11 36 19 WSW 1017,0 20 0 1,6
18.06.2018 23:00:00 17,3 14,7 17,4 22,8 23,8 17,2 18,2 11 6 18 10 WSW 1017,4 15 0 0,0
18.06.2018 22:00:00 17,8 14,0 17,9 23,6 24,1 17,2 18,2 13 7 27 15 WSW 1017,3 19 0 0,0
18.06.2018 21:00:00 17,9 13,5 18,2 24,8 24,3 17,2 18,3 16 9 28 15 WSW 1017,2 17 15 0,0
18.06.2018 20:00:00 19,0 12,9 20,1 26,3 24,5 17,2 18,4 22 12 33 18 WSW 1017,2 23 4 0,0
18.06.2018 19:00:00 19,0 11,9 20,1 28,5 24,5 17,2 18,4 18 10 27 15 WSW 1017,4 35 7 0,0
18.06.2018 18:00:00 19,4 11,0 20,9 30,1 24,2 17,2 18,4 20 11 28 15 WSW 1017,7 48 35 0,0
18.06.2018 17:00:00 19,1 11,2 23,0 31,3 23,8 17,2 18,4 15 8 31 17 WNW 1018,0 41 48 0,0
18.06.2018 16:00:00 19,6 12,1 25,2 30,9 23,3 17,2 18,2 20 11 30 16 WNW 1018,3 17 48 0,0
18.06.2018 15:00:00 18,9 12,2 23,3 29,4 22,9 17,2 17,8 16 9 31 17 WNW 1018,4 19 33 0,0

tt = temperature
td = dewpoint
tt 5cm = temperature 5cm
tt -5cm = temperature -5cm
tt -20cm = temperature -20cm
tt -100cm = temperature -100cm
tw = water temperature
ff = wind speed
fx = gusts
dd = wind direction
ppp = reduced air pressure
vv = visibility
sd = sunshine duration
rr = precipitation

Next stations